THORAD DELTA 1 DEB, 8436

Orbit data source: Space-Track

THORAD DELTA 1 DEB, 8436 is space debris in SSO originally from a launch on Fri, 15 Nov 1974 UTC launched from the Air Force Western Test Range (AFWTR). Debris objects in space refer to the collection of defunct objects orbiting the Earth. Examples of debris include non-operational satellites, rocket bodies, and fragments generated from explosions, collisions, or faulty payload assembly.

Loading next visibility...
Identifier
8436, 1974-089CM
Orbit
SSO
Country
Flag of USUS
Related business
Manufacturer
Unknown
Mission
Spacecraft
Bus & Motor
Unknown
Mass
Unknown
Launch date (UTC)
1974-11-15 (51 years ago)
Launch vehicle
Unknown
Launch site
Air Force Western Test Range (AFWTR)
Object type
Payload
Rocket body
Debris
Shape & HBR
Unknown shape, 0.2 m
Radar Cross Section
Medium (>0.1 m² and <1 m²)

Expand to show TLE details & history
Last TLE update: 9 hours ago

TLE from 9 hours ago
0 THORAD DELTA 1 DEB
1 08436U 74089CM  25286.61882868 -.00000009  00000-0  26061-3 0  9997
2 08436 101.7601  42.8445 0087422 156.2985 222.2425 12.35426992296239
Epoch: 2025-10-13T14:51Z
TLE epoch observation values (Epoch: 2025-10-13T14:51:06.797Z)
Latitude
17.47764°
Longitude
153.90689°
Altitude
1,579.467 km
Speed
7.057 km/s
True Right ascension
02h 36m 25s
True Declination
17° 23' 22"
Sunlit
Object was in full shadow at epoch
Visualization orbit readout
Latitude
Unknown
Longitude
Unknown
Altitude
Unknown
Speed
Unknown
Apparent Right ascension
Unknown
Apparent Declination
Unknown
Sunlit
N/A
Visualization observer readout
Local Sidereal Time
18:24:26
Azimuth
Unknown
Elevation
Unknown
Doppler factor
Unknown
Orbital elements
Apogee altitude
1,592.693 km
Perigee altitude
1,454.536 km
Semi-major axis
7,901.752 km
Eccentricity
0.00874
Inclination
101.7601°
RAAN
42.8445°
Arg. of periapsis
156.2985°
True anomaly
221.57445°
Mean anomaly
222.2425°
Eccentric anomaly
221.90794°
Mean motion
3.09 °/min
Orbital period
116.5 mins
BSTAR
0.00026061
Loading maneuver chart data...
Computing Atmospheric mass density...

Documentation

Showing up to 5 results
|